Theta_e
327 318 312 319 309 310 307 301 293 291 286 285 282 286 289 291 291 292 292 293 295 296 295 301 297 300 299 297 301 298 306 304 301 293 290 300 319 336 334 332 335 338 339 342 344 343 343 345 347 347 347 347 347 347 346 346 345 344 344 343 342 342 342 341 340 340 339 338 339 341 343 343 344 342 340 340 338 337 336 338 339 339 339 339 339 340 342 342 342 342 342 341 341 340 340 339 339
319 311 314 312 311 309 305 295 287 283 284 283 285 284 286 288 292 290 292 290 292 300 301 307 308 309 308 308 307 307 304 314 303 313 319 326 335 335 334 333 336 337 339 342 344 344 341 344 347 347 347 347 347 347 346 346 346 345 345 344 343 343 342 342 341 340 339 338 338 342 342 343 343 343 340 340 337 337 337 339 338 338 339 340 341 340 341 340 340 341 342 342 342 341 341 340 340
315 312 316 312 310 303 299 297 293 280 284 283 281 284 287 290 289 290 290 289 296 304 305 306 303 301 302 303 299 298 299 318 319 320 326 333 330 332 334 334 337 339 341 343 343 343 342 342 345 347 347 347 347 346 346 346 346 345 343 342 343 340 341 341 341 340 339 338 338 344 345 345 344 344 343 340 339 339 340 340 340 340 340 341 340 340 342 343 343 342 342 342 342 341 341 340 340
313 314 312 309 307 299 293 287 285 284 285 280 280 285 287 289 289 289 289 291 303 301 298 299 303 303 303 300 302 310 313 317 323 326 325 329 330 336 336 337 339 340 342 342 342 342 343 343 345 347 347 347 346 346 346 346 345 345 344 343 342 342 341 341 340 340 340 339 339 341 343 344 344 343 341 337 337 338 338 337 338 338 339 339 340 341 341 341 341 341 340 340 340 339 340 340 339
313 316 309 305 301 301 290 287 282 281 284 281 283 284 288 287 292 290 296 295 300 293 295 298 303 306 305 305 304 300 302 316 323 325 327 327 333 337 336 338 339 340 340 341 341 341 341 342 345 346 346 347 347 346 346 345 345 344 343 343 342 341 341 340 340 339 339 339 341 342 342 343 343 344 342 337 336 336 338 339 339 339 338 338 339 339 340 340 340 340 339 340 341 340 340 340 340
309 310 309 307 303 299 292 287 287 286 285 284 285 289 287 290 294 293 297 295 294 292 294 299 301 302 306 307 308 306 311 316 325 324 329 328 336 338 337 338 339 339 340 341 340 338 337 342 343 346 346 346 346 346 346 346 345 344 344 343 342 341 341 340 339 339 339 339 342 343 342 343 344 343 342 340 337 336 336 336 337 337 337 337 339 340 339 340 339 339 339 339 339 339 339 338 338
313 302 301 304 299 297 292 284 283 281 287 286 289 288 291 290 293 293 294 295 295 298 293 302 302 302 301 302 309 312 314 319 323 323 324 330 338 337 338 338 339 338 340 339 338 337 338 342 345 347 347 346 346 346 346 345 345 344 343 343 342 341 340 340 339 339 338 338 338 340 340 342 342 343 342 340 338 337 335 336 336 336 336 337 338 339 340 340 340 340 339 339 338 338 338 338 338
309 307 300 294 291 287 283 282 282 282 289 286 289 290 292 294 291 291 292 294 294 297 301 301 295 297 299 306 303 311 312 316 320 320 321 335 337 337 338 338 337 338 339 339 337 338 343 341 345 346 347 346 347 346 346 345 345 344 343 343 342 342 340 339 339 338 338 338 338 340 341 341 342 341 341 340 338 337 336 335 335 335 335 335 338 339 340 339 339 339 340 339 339 338 338 338 337
306 303 300 297 289 285 282 285 285 284 285 288 289 291 300 293 291 292 291 291 294 294 300 301 295 297 296 303 302 308 311 316 319 321 329 335 336 336 338 338 337 337 339 340 338 340 341 339 343 345 346 346 346 346 346 345 345 344 343 343 342 341 341 339 339 338 338 338 337 338 340 342 341 341 340 340 338 337 336 335 334 334 335 337 338 337 338 339 339 339 338 338 338 337 337 337 337
302 301 295 293 286 288 281 284 286 289 289 290 291 294 294 291 291 292 291 293 295 295 298 294 294 295 298 302 304 311 316 315 318 323 330 334 335 336 337 337 338 338 339 340 340 341 340 344 340 343 344 346 346 346 346 345 345 344 343 342 342 341 340 340 338 338 338 338 337 337 341 340 340 340 340 339 337 336 335 334 334 333 335 335 337 337 337 336 337 337 337 337 337 337 336 337 336
297 296 295 292 282 282 285 284 282 283 291 287 290 290 293 290 291 290 291 294 292 295 295 296 299 299 301 301 301 308 313 316 320 326 330 333 333 335 336 338 338 339 339 340 340 341 341 341 341 340 341 343 345 346 346 345 345 344 343 342 342 341 340 339 339 338 337 337 337 335 337 338 338 339 339 338 337 335 334 333 333 333 334 335 335 336 337 336 336 337 336 336 336 335 335 335 335
297 293 292 283 283 285 281 283 285 284 286 288 295 293 291 292 291 292 292 295 293 294 295 297 298 300 297 296 302 307 311 318 317 323 328 332 331 332 336 338 338 339 340 340 340 340 341 341 341 341 338 340 341 343 343 343 344 344 343 342 342 341 340 339 338 338 337 337 337 336 335 337 337 336 337 336 336 334 333 332 332 332 333 333 336 336 336 335 335 334 334 334 334 334 334 334 333
294 293 289 287 287 285 284 285 288 291 285 287 293 295 291 292 292 291 291 292 291 293 294 296 299 297 294 297 299 304 315 319 317 319 325 330 329 331 335 337 338 338 340 340 340 340 340 341 341 340 337 335 336 337 338 340 342 343 343 342 341 341 340 339 338 338 337 337 336 337 337 336 335 334 334 335 334 334 332 331 331 332 333 334 334 334 335 334 334 334 333 333 333 333 334 333 333
295 294 292 292 283 283 284 285 283 289 287 288 288 290 292 292 291 290 292 293 291 293 295 293 300 297 296 296 297 303 312 316 317 318 324 329 329 332 335 337 337 337 338 340 340 340 340 340 341 340 337 337 337 335 334 336 338 341 341 340 340 340 340 339 338 338 337 337 336 335 335 334 334 333 333 333 334 333 332 334 333 332 334 334 334 335 334 334 333 333 333 332 332 332 332 332 331
300 294 288 284 283 285 283 287 289 285 287 287 292 291 291 294 290 290 294 293 293 292 295 299 299 296 291 294 290 304 315 319 318 321 329 330 332 334 335 336 336 336 337 338 340 339 340 340 340 339 339 338 337 336 334 335 334 336 337 337 337 338 337 336 336 335 333 333 332 331 331 331 330 331 331 331 331 331 331 330 332 333 334 334 334 334 334 333 333 333 333 332 331 331 330 329 329
298 293 288 287 285 284 286 285 282 285 288 287 291 289 292 292 289 293 293 293 294 295 295 299 304 297 296 294 302 298 313 317 321 327 331 331 331 333 334 335 335 335 335 337 338 339 339 339 338 338 339 339 339 338 336 334 332 332 335 336 335 335 334 333 331 329 325 325 325 326 325 325 325 325 325 325 327 328 328 326 330 333 333 333 333 333 333 332 332 331 331 330 330 329 328 327 325
297 293 291 283 287 285 286 285 287 287 286 286 288 290 293 292 292 293 292 293 295 295 298 301 303 310 296 296 303 310 313 320 325 330 331 329 330 330 331 332 333 333 335 335 336 337 338 337 337 337 338 339 339 339 338 336 333 331 331 330 330 331 330 328 326 322 320 320 320 321 321 321 320 320 320 320 320 320 321 324 327 332 334 333 332 332 332 331 331 330 329 327 325 323 320 320 320
297 290 286 286 283 285 287 288 290 287 289 289 288 290 293 290 292 295 295 294 291 294 299 294 302 311 314 315 312 311 318 324 327 328 328 328 329 328 329 330 331 330 332 333 335 337 337 337 336 337 337 338 339 339 339 338 335 333 332 330 329 328 325 323 322 321 322 319 320 320 319 319 319 318 319 321 318 319 321 321 323 328 332 332 331 331 331 330 328 327 325 323 322 319 315 309 310
290 286 288 288 284 287 291 289 291 289 290 290 290 287 292 291 292 293 294 291 293 295 296 294 300 302 312 314 314 318 322 323 327 328 327 327 327 327 328 329 329 331 330 332 333 335 336 336 337 337 337 338 338 338 339 338 337 336 333 331 331 326 324 322 321 319 318 318 318 318 318 318 318 318 318 318 317 318 320 320 323 326 329 329 329 328 327 327 325 324 322 319 317 314 308 306 306
291 290 289 284 288 288 289 288 291 289 290 290 290 288 289 292 292 293 294 290 291 293 292 294 296 299 307 314 316 319 322 323 326 326 326 327 328 328 328 328 329 331 331 332 332 335 336 336 336 337 337 337 337 338 338 337 337 337 335 334 331 327 324 321 319 319 318 318 318 318 318 318 317 318 319 317 315 313 314 316 316 316 318 320 322 323 324 322 321 319 317 314 310 308 306 305 305
293 290 286 289 287 292 292 287 288 287 289 290 289 287 290 291 291 293 289 292 291 290 290 296 296 295 308 314 316 320 321 322 325 325 325 326 328 330 330 331 331 332 333 333 333 334 335 336 336 336 337 337 337 338 337 337 337 336 336 333 331 329 326 322 320 318 318 318 318 318 318 317 317 316 315 312 310 309 308 308 308 307 308 308 311 308 307 307 306 305 305 306 304 305 305 304 304
291 292 289 289 287 291 292 287 287 287 287 289 286 291 290 291 292 289 292 291 290 294 296 294 296 298 311 313 316 319 320 321 323 324 323 324 326 328 330 331 331 331 331 332 332 334 335 336 336 336 337 337 337 338 338 336 336 336 335 333 331 329 327 324 322 320 319 318 318 318 317 317 316 316 313 310 308 307 305 304 304 304 305 304 305 303 303 303 302 303 303 303 302 302 302 302 302
294 289 288 287 287 292 290 288 288 287 288 289 288 290 290 291 292 287 291 293 291 291 292 294 292 304 313 314 316 318 319 320 322 323 324 324 325 328 329 330 330 330 330 332 333 334 335 336 336 336 336 337 337 338 338 336 337 336 335 333 330 328 327 324 322 322 321 321 319 317 317 316 315 315 312 309 307 305 303 302 302 302 302 302 302 302 301 301 301 302 302 302 302 301 300 301 301
289 291 289 291 287 292 288 289 288 286 291 290 289 290 291 289 292 289 289 292 291 290 288 289 297 313 316 314 316 318 319 320 321 324 325 325 326 327 328 328 330 330 328 331 332 334 334 335 336 336 336 336 336 338 337 337 337 336 335 330 331 327 326 325 323 322 322 322 320 319 317 316 316 314 312 309 306 304 303 301 300 300 300 300 301 301 300 299 300 301 302 302 301 300 300 299 300
291 291 290 290 289 290 287 286 286 287 288 287 289 291 291 289 290 289 289 293 293 291 294 300 309 313 314 312 314 316 317 319 320 322 323 325 326 327 326 325 325 326 328 329 331 333 334 335 336 336 336 336 337 338 337 336 337 336 334 332 331 325 327 325 324 323 322 322 321 320 318 316 315 314 312 308 306 304 303 301 300 299 299 299 299 299 300 299 300 300 301 300 300 299 298 298 298
289 291 288 289 290 288 289 288 287 287 289 288 291 289 289 288 289 291 292 291 290 294 300 305 309 311 312 312 313 314 315 316 317 318 321 323 322 325 326 326 326 326 328 328 328 331 333 334 335 335 336 336 336 337 337 336 336 336 334 333 332 326 328 326 324 323 323 322 321 320 320 318 316 314 311 307 306 304 302 301 300 298 297 297 298 298 298 299 298 298 298 299 299 299 298 297 298
288 287 287 289 289 290 289 290 289 288 289 288 290 289 290 290 290 289 288 288 293 296 298 300 306 307 310 312 313 313 313 314 315 316 315 319 319 321 324 326 325 326 327 327 329 330 330 332 333 334 335 334 336 335 335 336 336 336 334 334 332 329 329 326 324 323 323 323 322 321 320 319 318 316 314 309 307 305 302 300 298 297 296 296 297 297 298 298 298 298 298 298 298 297 297 297 297
289 289 288 289 286 290 289 289 289 289 292 286 289 290 289 290 289 289 291 288 290 294 296 299 299 303 307 310 313 314 314 313 312 311 314 316 318 319 321 323 324 325 326 326 328 329 328 330 332 332 334 333 333 334 333 334 336 336 334 335 333 331 329 327 325 323 322 323 322 321 321 320 318 317 315 311 309 307 303 300 298 296 296 295 296 296 297 297 297 296 296 297 297 297 296 296 296
290 292 290 287 284 290 289 291 289 289 291 291 289 291 289 290 289 291 288 288 293 292 294 296 299 299 301 304 308 312 314 315 316 316 315 316 318 319 319 322 324 324 325 326 327 326 327 327 331 331 331 331 332 333 333 334 334 335 333 333 332 331 331 328 325 324 324 324 322 322 321 320 319 318 316 313 310 308 305 301 298 297 297 297 297 297 297 297 296 296 295 297 296 296 295 294 295
290 289 287 286 286 283 291 287 288 291 291 288 289 284 283 287 293 290 289 289 291 293 292 293 295 294 295 298 304 307 310 310 312 315 316 316 315 316 317 318 320 322 323 322 321 324 327 328 327 329 328 329 329 332 331 331 332 334 332 333 331 332 332 329 326 325 324 325 324 322 321 320 319 318 316 314 311 309 305 303 300 299 298 298 298 298 297 297 296 296 295 296 296 295 293 293 292
291 287 283 280 285 282 286 288 288 291 290 286 289 284 281 281 284 286 285 288 291 292 292 291 292 292 292 293 298 303 305 308 310 313 314 315 314 314 315 314 315 317 317 318 320 321 321 325 325 326 324 326 325 328 329 330 329 332 333 332 331 331 331 331 329 326 325 325 325 322 321 319 319 318 317 315 312 311 306 303 301 299 298 298 298 298 297 296 296 296 296 295 295 294 293 292 291
282 286 283 282 282 282 285 287 288 290 291 287 289 284 286 287 286 284 287 288 289 290 290 290 290 291 292 291 293 296 301 303 305 307 309 311 312 313 314 314 314 314 316 317 317 316 318 319 320 324 322 324 323 325 326 327 328 329 329 328 331 328 330 330 330 329 327 325 326 325 322 320 319 318 317 315 312 312 308 303 301 298 298 298 298 298 298 296 296 296 296 295 293 292 292 291 293
280 283 281 283 281 280 284 291 286 289 291 289 288 284 282 286 288 290 285 288 287 289 288 288 289 289 290 291 292 293 294 296 297 301 305 307 309 312 313 313 314 315 315 315 315 315 316 318 318 320 320 321 320 320 322 323 325 327 328 327 329 328 328 328 328 328 329 327 326 326 324 322 319 318 317 315 312 312 309 305 302 299 298 298 298 298 297 297 296 296 295 295 295 292 290 289 289
285 281 282 280 281 281 283 285 289 288 290 289 286 287 284 286 286 285 286 288 288 288 289 289 289 289 290 290 291 292 293 294 295 297 299 302 305 307 311 312 313 314 315 315 315 316 317 317 317 319 319 319 320 319 318 319 321 324 324 326 324 327 326 326 327 326 326 328 327 327 326 323 320 319 317 316 314 314 310 306 302 299 298 299 298 298 297 297 297 296 294 294 294 292 290 289 289
283 284 282 283 281 281 282 285 288 289 288 287 286 286 289 291 291 291 289 288 289 289 290 290 291 291 291 290 291 291 292 293 296 297 297 297 300 303 305 308 310 312 314 315 314 315 314 315 315 315 316 316 316 315 312 312 314 317 316 319 321 322 323 322 322 324 325 325 327 327 326 324 320 320 317 316 314 314 311 306 301 299 298 299 298 298 296 296 296 296 295 293 292 292 291 290 288
286 286 284 281 283 282 282 282 283 288 287 287 284 287 287 289 290 291 289 287 288 289 287 288 289 289 290 291 291 291 292 293 296 295 294 294 296 300 302 305 308 310 312 313 313 313 313 313 313 314 314 314 312 310 310 310 311 314 316 313 315 316 317 316 316 319 323 324 323 325 327 326 323 321 319 317 315 314 310 305 301 299 298 299 298 297 296 295 295 294 293 291 290 290 290 289 288
285 283 281 282 281 282 282 284 287 285 287 286 284 284 284 288 290 291 291 289 288 288 290 290 290 290 291 291 292 293 292 294 294 293 294 295 295 296 300 303 305 307 309 311 312 312 313 314 312 313 312 311 312 310 310 311 311 310 312 316 318 317 316 316 316 315 315 317 319 322 324 325 324 321 319 317 315 312 311 306 302 299 298 298 297 297 296 296 295 294 293 293 290 288 287 288 288
287 285 283 282 283 284 285 287 287 286 288 284 281 283 286 287 290 291 290 287 289 290 290 290 291 291 291 291 292 292 294 291 291 293 293 291 294 295 297 302 304 305 307 310 311 313 313 312 312 313 310 310 312 312 312 311 311 313 314 314 314 315 314 314 315 314 314 314 312 314 317 320 322 323 320 319 317 315 312 307 303 300 299 298 298 298 296 296 295 293 292 290 290 289 287 288 288
282 284 282 282 282 281 286 286 286 285 287 283 282 285 287 289 290 291 290 290 289 289 290 291 290 291 291 291 291 291 289 292 290 292 291 291 293 294 298 301 304 307 307 309 310 309 309 310 311 311 310 310 311 311 310 311 305 303 308 303 312 304 304 308 309 307 310 311 311 312 313 315 318 319 321 319 318 315 312 307 303 302 300 298 297 297 296 295 294 293 292 290 288 289 288 289 288
282 281 281 281 283 286 285 285 286 285 284 287 284 285 289 288 287 288 291 290 289 287 287 289 289 290 292 292 289 289 289 290 291 292 292 291 291 293 296 300 303 304 305 305 307 310 310 309 309 309 309 309 309 308 308 305 305 299 298 300 301 303 304 302 305 302 304 306 309 309 309 311 314 316 318 319 318 315 312 307 304 302 301 300 299 298 297 295 293 292 292 293 290 286 286 286 288
283 284 282 282 284 282 280 284 283 281 285 282 284 285 286 281 285 289 283 283 283 286 285 288 290 290 290 290 290 290 291 291 292 292 291 289 290 294 297 300 300 304 305 306 307 309 310 309 309 309 308 308 307 306 306 303 302 300 298 299 299 301 300 302 306 308 307 307 308 308 309 308 311 313 314 317 316 315 312 308 305 303 301 300 299 298 297 295 293 293 293 292 290 289 286 286 287
285 283 284 284 285 284 283 283 283 279 283 281 283 282 277 277 279 282 285 283 286 283 284 287 288 286 284 287 290 291 291 291 292 293 292 290 290 292 294 297 301 303 305 306 307 308 306 306 306 306 305 305 306 305 305 304 306 305 302 303 301 299 302 303 306 308 309 308 309 308 307 307 309 310 312 313 313 313 313 309 306 303 301 300 300 299 297 295 293 293 293 292 291 292 289 286 285
283 286 285 284 285 285 283 282 282 280 280 283 281 282 275 278 280 282 281 282 286 288 285 289 289 287 285 286 287 288 290 289 287 289 290 290 289 292 294 298 301 302 304 302 303 305 304 305 305 305 305 305 304 304 303 305 304 304 306 307 307 307 307 304 303 305 308 308 308 307 308 306 307 308 309 311 312 312 311 309 307 304 302 301 299 299 297 295 294 293 293 293 293 293 290 287 286
285 283 283 285 286 286 284 283 282 279 279 283 278 275 277 277 283 281 280 282 285 287 289 288 287 284 283 285 286 286 287 286 287 288 289 289 289 292 295 298 300 302 299 300 303 303 304 304 304 304 303 303 303 303 303 305 306 304 303 303 304 304 305 304 301 302 300 301 305 307 306 306 305 306 308 309 311 311 310 309 307 305 303 302 299 299 298 296 295 294 294 294 294 292 290 289 288
284 284 284 283 285 282 281 282 280 280 281 281 277 284 280 276 280 281 280 286 283 285 287 288 285 285 284 285 286 285 285 285 287 289 290 290 291 291 294 295 297 298 299 302 303 303 302 302 302 301 302 302 301 302 303 302 304 304 304 303 303 302 302 301 295 296 297 296 299 299 303 305 305 305 306 309 310 311 309 309 308 305 304 302 299 300 299 297 295 294 293 292 292 291 291 291 290
285 283 284 283 282 281 280 278 281 279 278 274 279 281 276 278 278 280 279 285 284 287 290 287 285 285 285 286 286 286 287 286 287 288 290 291 291 291 292 294 296 297 297 297 298 300 300 301 301 301 301 301 301 301 301 301 301 301 302 301 302 301 299 297 295 295 295 294 296 295 297 299 300 301 304 306 308 310 309 308 307 306 304 303 300 300 299 297 295 294 293 292 292 291 291 291 290
287 284 287 284 280 280 278 277 275 275 273 275 277 276 279 277 280 283 284 284 285 284 284 284 282 284 286 285 286 289 289 289 287 287 287 289 288 289 292 296 295 295 294 297 298 300 299 301 301 301 301 300 299 300 300 301 300 300 302 301 301 301 299 298 296 295 294 293 296 296 296 297 298 300 302 304 306 308 309 307 307 306 305 302 300 300 299 298 296 295 294 293 293 292 291 290 291
286 283 280 285 282 277 277 272 274 272 269 273 276 279 278 275 276 280 282 282 281 285 289 288 284 286 287 287 287 288 287 287 287 286 287 287 291 292 293 295 295 294 294 296 297 297 299 300 300 300 298 298 298 299 299 300 300 300 300 301 301 300 300 299 299 298 296 296 296 296 296 295 297 298 301 302 304 306 307 307 306 306 304 303 301 301 300 299 298 296 295 294 293 293 293 292 291
284 283 285 279 271 270 274 269 274 272 271 277 277 278 278 279 281 283 283 285 286 283 286 287 285 285 287 287 288 288 288 286 286 285 286 288 290 291 293 294 293 294 296 296 297 298 298 298 299 300 299 298 298 298 298 299 299 300 300 300 300 300 299 299 299 298 297 297 297 297 296 297 297 297 299 301 302 304 305 306 305 305 305 304 303 301 301 300 299 297 295 294 293 293 292 292 290
283 285 280 276 271 268 267 263 263 268 273 276 278 278 277 278 281 287 290 290 287 285 285 286 286 287 288 288 287 287 288 286 287 286 285 286 287 288 290 292 293 293 294 295 295 296 296 297 297 299 300 297 296 296 297 298 298 299 299 300 300 299 299 299 299 299 298 298 298 298 298 298 298 298 300 300 302 303 305 305 305 305 305 305 303 302 301 300 299 297 296 295 293 293 293 292 291
284 282 285 282 272 267 268 266 273 274 273 274 276 275 274 277 283 286 286 288 285 285 285 283 284 285 285 285 285 286 288 288 286 286 288 288 289 288 289 291 291 292 292 294 294 295 295 296 297 297 298 296 296 297 297 297 298 298 298 299 299 298 299 299 299 299 299 298 298 298 298 298 298 299 301 302 301 302 303 305 305 305 305 304 303 302 301 301 299 298 297 296 294 294 293 292 291
282 280 282 281 279 276 271 266 268 266 271 273 274 275 276 280 283 286 286 285 285 285 284 284 286 285 283 284 286 287 288 289 288 287 288 288 287 287 288 290 291 292 292 293 293 295 295 296 296 297 299 298 296 296 297 297 298 297 297 297 298 298 297 298 297 297 298 299 299 298 298 298 298 299 301 301 301 301 301 302 304 305 305 304 303 302 301 301 300 298 297 296 294 294 293 292 292
284 283 277 280 280 280 272 270 271 272 269 272 270 277 281 281 284 289 284 284 288 286 284 284 284 283 282 286 286 285 287 288 288 289 290 289 287 286 289 290 290 291 292 294 295 296 296 296 296 296 297 295 295 296 297 296 297 296 296 297 297 297 297 297 299 298 298 298 299 298 298 298 299 299 300 301 301 301 301 302 303 304 305 304 304 302 302 301 300 298 297 296 295 294 293 292 291
283 279 282 283 282 282 279 274 266 263 269 272 272 275 277 276 280 283 282 285 287 285 285 283 283 282 285 287 286 286 288 287 288 289 289 289 289 289 289 289 290 292 293 293 295 295 296 297 297 297 296 296 295 295 296 296 296 296 296 296 296 297 298 298 298 298 298 298 298 298 297 297 297 298 299 299 300 300 300 299 301 302 303 304 303 302 301 300 300 298 297 297 296 295 293 292 292
283 281 284 285 279 277 277 272 269 266 265 266 270 272 273 277 281 280 284 284 287 289 287 284 286 286 286 286 286 286 284 285 286 288 290 291 290 291 289 289 289 291 292 293 294 294 295 294 296 297 297 297 297 296 295 296 296 297 297 296 296 297 297 297 298 298 298 298 298 298 297 298 297 297 296 297 297 298 298 298 298 299 300 301 302 302 301 300 299 298 296 296 295 294 293 292 292
286 285 283 284 280 274 273 276 270 273 266 263 268 267 278 278 279 280 286 282 285 284 283 285 286 286 286 286 288 286 284 285 286 286 288 289 290 291 290 289 289 289 290 291 292 292 294 295 295 295 295 293 293 294 294 295 295 295 295 295 295 296 296 297 297 297 297 298 298 298 297 296 297 296 296 296 296 297 297 297 296 297 297 298 299 299 299 298 297 297 296 295 294 293 292 292 292
282 282 281 285 279 281 280 276 272 274 265 263 263 268 272 277 280 283 287 284 283 283 285 284 284 285 285 285 285 285 285 285 285 285 286 287 288 289 289 288 288 288 289 290 291 293 294 293 294 295 295 295 294 295 294 295 293 294 294 294 295 294 294 295 296 296 297 298 298 297 297 297 295 295 295 294 294 296 297 297 296 295 296 296 296 296 295 295 295 296 295 295 293 292 291 292 291
285 285 283 286 281 278 276 276 275 266 272 265 263 273 273 280 282 286 286 285 284 283 284 285 283 282 283 283 283 283 285 285 285 285 285 287 288 288 287 286 287 288 289 289 290 290 292 294 295 295 294 295 295 295 294 294 293 294 293 294 293 291 292 293 294 295 295 296 295 295 295 293 294 295 294 294 294 295 295 296 296 295 295 294 295 297 295 294 294 295 295 295 294 293 292 291 291
Wind_Speed
6 5 2 0 3 2 2 7 3 2 3 0 0 0 2 0 1 1 0 1 1 1 1 2 2 6 3 4 8 4 1 6 6 6 3 1 2 2 4 4 6 7 7 4 3 3 4 7 8 11 12 11 11 11 11 11 12 12 12 12 12 12 12 12 12 12 12 12 12 14 13 15 15 17 17 17 18 17 16 17 18 17 17 17 16 18 18 18 18 18 20 19 18 19 20 19 19
3 3 1 1 1 1 1 1 4 3 6 2 3 1 2 1 1 4 6 4 2 1 2 6 5 7 8 8 8 4 1 2 5 1 2 2 4 4 2 5 7 9 7 5 3 3 3 5 8 11 11 11 11 11 11 11 12 12 12 12 11 11 11 12 12 11 12 12 13 13 13 14 15 17 17 17 17 16 16 16 17 17 17 17 17 17 17 18 18 19 18 19 20 19 19 19 19
2 4 1 4 3 4 2 4 1 1 5 2 4 5 1 3 4 4 5 4 2 4 4 4 3 3 2 2 1 1 3 1 2 3 2 2 8 4 4 4 6 8 9 4 4 4 3 4 7 10 11 11 11 10 11 10 11 11 12 12 11 11 11 12 12 11 11 11 12 14 14 13 16 17 18 17 17 17 17 17 17 17 17 16 16 16 18 18 19 19 19 19 19 19 19 19 19
1 4 2 3 1 4 1 4 4 7 4 6 1 3 3 5 4 5 4 3 6 3 0 0 2 1 1 0 0 2 1 2 2 2 4 5 2 5 6 7 8 8 5 4 4 4 4 5 8 9 11 10 11 11 10 10 10 11 11 12 12 12 11 11 11 11 10 10 12 13 12 15 15 18 16 16 16 17 16 16 16 16 16 15 16 17 17 19 19 19 18 19 18 18 18 18 18
2 2 2 2 3 2 3 1 4 3 3 5 4 2 3 4 5 4 2 3 3 1 0 2 3 1 0 2 1 1 3 1 2 1 1 1 1 6 7 8 8 9 7 4 5 4 4 8 8 8 11 11 11 11 10 10 10 10 11 11 12 12 12 11 11 11 10 11 13 12 12 12 14 16 18 17 16 16 17 16 15 16 15 15 16 16 17 17 18 18 18 18 18 18 18 18 18
4 3 4 1 1 2 5 2 1 2 6 6 1 3 5 6 7 5 4 2 3 3 2 1 2 4 1 1 2 0 1 5 2 0 3 3 6 7 8 8 9 9 6 5 4 4 4 7 8 9 12 12 11 11 10 10 10 10 10 10 11 11 11 11 10 10 10 11 13 13 12 13 15 16 15 16 16 16 16 16 15 15 15 15 16 17 17 17 18 18 17 16 17 18 18 18 18
1 3 5 3 3 4 3 2 3 3 2 4 1 2 6 4 4 5 3 1 1 1 1 1 2 4 3 1 1 1 2 1 0 1 3 3 7 7 8 9 8 9 6 5 4 3 3 7 7 9 10 11 11 11 10 10 10 10 10 10 10 10 11 11 10 10 10 11 10 12 12 13 14 16 15 15 17 16 15 15 15 14 14 15 14 15 16 17 18 17 17 17 17 18 18 18 18
2 1 1 3 1 4 2 1 1 4 0 4 1 1 4 7 5 4 5 2 2 2 1 1 1 3 1 2 2 1 2 2 2 3 2 7 7 8 8 8 8 8 6 5 4 3 5 7 7 8 9 11 11 11 11 10 10 10 10 9 9 10 10 10 10 10 10 9 11 12 12 13 14 16 16 16 17 15 15 14 14 15 13 14 15 17 17 17 18 17 18 18 18 18 19 19 18
4 5 0 5 2 3 3 1 1 2 5 1 4 5 1 5 5 5 4 1 0 0 3 2 1 1 2 1 1 2 3 2 3 2 4 7 9 8 6 8 9 8 7 5 4 4 3 6 7 9 9 10 11 11 11 10 10 10 10 10 9 10 10 10 10 10 9 9 10 12 13 14 14 15 16 15 16 15 14 14 14 14 14 15 15 16 17 17 17 18 18 18 19 19 18 19 19
2 1 1 2 3 1 2 1 1 2 1 2 2 3 6 3 4 1 3 2 1 4 2 1 1 1 3 2 1 1 1 4 2 2 4 7 7 7 6 7 8 10 8 6 4 4 4 6 7 7 8 9 10 11 11 10 10 10 9 9 10 9 10 10 9 10 10 10 9 11 13 13 13 15 15 15 15 15 14 13 13 14 14 15 16 16 16 15 17 17 17 18 19 19 19 19 19
1 5 3 3 4 1 1 1 3 3 1 3 3 4 2 4 5 1 0 1 1 3 1 2 2 3 2 1 2 2 3 1 3 6 5 7 6 6 6 6 6 9 10 7 5 4 4 3 7 7 7 9 9 9 10 9 10 9 9 9 9 9 9 10 10 9 9 9 9 8 11 11 12 13 14 14 14 14 14 13 13 14 14 14 14 15 16 16 16 17 17 18 18 18 19 19 19
1 1 2 4 1 4 3 2 1 4 4 2 2 0 3 6 2 3 1 5 1 1 3 5 1 6 2 1 1 1 5 1 4 3 4 5 6 5 6 5 6 5 7 7 6 5 4 3 4 6 6 7 7 8 8 8 9 9 9 9 9 9 10 10 10 9 9 9 8 8 8 12 11 11 13 13 13 13 14 12 13 14 14 15 15 15 16 16 16 17 16 16 17 18 19 19 20
3 1 6 5 0 1 1 1 1 2 3 3 3 0 3 5 4 5 4 2 1 4 3 6 3 2 1 2 2 5 1 4 3 2 3 5 4 4 4 5 6 5 6 5 6 5 4 4 4 4 4 7 7 7 7 8 8 9 8 9 8 9 10 10 9 9 9 9 8 8 10 12 11 10 11 12 12 11 12 12 13 14 14 14 14 15 15 16 16 16 16 16 17 17 18 18 18
4 5 5 1 1 3 4 2 1 2 3 2 2 1 4 3 3 5 7 4 3 4 1 1 3 3 1 1 2 2 4 3 4 2 1 3 4 4 5 5 6 6 5 5 5 5 5 4 4 4 4 4 4 5 6 7 8 8 8 8 7 8 9 9 9 8 9 10 9 9 11 11 10 10 9 9 10 10 9 9 11 13 15 15 15 15 15 15 16 16 16 16 17 17 18 18 18
3 2 6 5 1 1 1 3 7 4 4 2 3 6 2 2 3 5 6 7 5 2 0 0 2 1 4 5 3 7 6 5 4 3 4 4 5 5 5 5 5 5 5 5 4 5 5 4 4 4 4 4 4 4 3 4 8 8 8 8 8 8 9 9 8 9 10 10 10 12 12 12 11 11 10 10 10 6 6 10 9 11 15 15 15 15 15 15 16 16 16 16 17 17 18 18 18
5 6 4 3 1 3 2 1 1 3 5 4 1 3 5 0 1 5 4 1 1 1 0 2 1 1 1 5 0 2 4 5 4 5 6 6 5 5 5 5 5 5 5 5 4 4 4 4 4 4 4 4 4 4 4 3 6 8 8 8 8 9 9 10 10 10 10 11 11 12 12 10 9 8 10 8 9 8 8 8 7 10 14 14 15 15 15 16 16 16 16 17 17 18 18 18 17
2 4 2 3 1 2 2 2 5 4 4 3 1 5 6 2 0 1 1 1 6 1 1 0 1 0 2 2 1 4 2 7 6 6 6 5 5 4 4 4 5 6 6 5 5 4 5 5 5 4 5 5 5 5 4 4 5 8 7 8 9 9 9 10 11 11 10 10 10 10 10 7 5 5 6 5 7 5 8 9 6 8 13 14 14 15 15 16 16 16 16 16 16 18 17 17 16
2 2 5 1 2 3 6 7 10 1 4 4 4 6 6 2 1 1 1 4 2 1 1 2 0 0 2 4 3 3 4 11 8 9 8 7 6 5 6 5 6 6 6 5 6 5 5 5 6 5 5 6 6 4 4 4 4 6 5 4 4 7 8 9 7 6 6 6 9 7 6 5 5 4 5 6 5 5 7 9 8 9 12 12 13 15 16 16 15 16 16 16 16 15 14 9 8
4 1 2 4 5 5 7 5 6 2 3 5 3 4 5 6 7 2 2 0 1 1 1 1 2 2 2 1 2 7 9 10 11 10 9 10 9 8 8 6 7 6 7 6 6 6 5 5 5 6 6 6 6 5 4 4 5 5 5 5 4 5 5 5 6 5 4 5 5 5 5 5 5 5 5 6 6 8 8 9 9 10 10 12 13 15 15 16 15 15 15 15 14 13 9 7 6
1 4 2 3 6 2 4 4 7 1 3 6 6 3 2 1 4 1 2 3 1 5 4 1 3 4 1 1 5 7 9 10 9 11 11 9 10 10 8 8 8 8 8 7 7 6 6 6 6 5 7 6 6 5 4 4 4 5 5 5 4 4 4 4 4 5 5 5 5 5 5 5 5 5 8 11 8 6 7 11 12 12 12 12 13 10 14 14 15 14 14 13 9 6 6 6 6
1 2 3 1 2 1 1 4 4 4 1 5 5 2 1 1 2 3 3 5 3 5 6 9 9 8 7 6 7 7 10 9 10 9 10 11 9 9 10 10 9 7 5 5 6 7 7 7 6 5 6 6 7 6 5 5 5 4 4 5 5 4 4 4 4 4 4 5 5 5 5 4 5 5 5 5 5 5 5 5 6 6 6 6 8 8 6 6 6 6 7 7 6 6 7 6 6
4 1 0 1 1 0 0 3 3 3 2 8 4 8 5 1 1 4 8 6 7 9 9 10 7 8 12 12 10 8 10 11 11 11 12 12 13 11 9 8 5 4 5 7 8 7 8 8 7 6 6 6 8 7 6 5 6 5 5 6 6 4 5 4 4 4 4 5 4 5 5 5 5 5 5 5 5 5 5 5 5 5 6 5 6 6 4 4 4 5 6 7 6 6 7 6 6
3 1 0 2 1 0 1 2 3 5 4 6 6 4 4 4 1 1 6 9 4 4 1 5 5 4 7 8 12 11 11 13 13 14 13 12 12 11 11 9 9 8 6 8 7 7 7 8 8 8 8 7 8 7 7 6 6 6 6 6 7 5 5 5 4 4 4 5 5 5 6 5 5 5 5 5 5 5 5 5 5 5 5 6 5 6 5 4 5 5 6 6 6 7 7 6 6
4 2 0 1 3 1 2 2 1 2 10 7 3 3 3 4 4 1 4 7 3 1 2 2 5 8 9 12 13 16 17 16 17 16 15 16 15 15 10 9 8 4 4 6 7 7 8 8 9 8 8 8 7 6 6 8 7 7 6 7 7 6 6 5 5 4 5 5 5 5 5 5 6 5 5 6 5 5 5 4 5 5 5 5 4 5 6 5 5 5 6 6 7 6 7 6 6
2 1 1 1 1 1 2 0 2 3 2 1 4 5 1 2 1 1 6 9 7 1 3 4 6 9 7 7 12 10 11 10 10 9 7 7 7 5 5 6 5 5 8 7 6 7 9 8 8 10 8 9 7 7 6 5 7 8 7 7 6 7 6 6 5 5 5 5 5 5 6 6 5 5 5 5 5 5 5 5 5 5 5 5 5 4 5 6 5 5 5 6 5 6 5 6 6
1 1 3 1 1 3 1 4 4 4 2 2 5 1 1 2 2 3 9 6 1 3 5 5 7 7 9 10 12 11 12 14 11 10 13 8 5 7 8 8 6 9 10 8 6 6 6 7 9 10 9 9 7 7 8 6 4 7 8 8 7 8 6 6 7 5 5 6 5 5 6 6 7 7 6 4 5 6 5 5 5 5 5 5 5 5 4 6 6 6 6 5 6 6 6 4 5
4 5 4 5 1 1 4 3 1 1 3 1 5 1 1 1 2 7 2 2 1 4 4 3 6 8 9 9 9 8 10 13 14 8 4 7 7 9 10 9 9 10 8 10 9 7 6 8 8 9 8 6 7 6 5 8 8 6 7 7 6 7 7 7 7 6 5 6 6 7 6 6 6 6 7 6 5 5 5 5 5 5 5 5 4 5 4 5 5 5 6 6 6 6 6 5 4
5 8 4 7 5 3 2 3 3 0 2 2 4 1 0 2 1 8 1 3 1 5 4 5 5 5 7 8 9 8 8 6 3 5 12 11 12 12 13 13 13 10 11 11 8 6 7 9 9 6 8 9 8 7 6 5 7 8 7 9 10 10 10 8 7 7 6 6 7 8 8 7 7 7 8 7 7 7 6 6 5 6 5 5 5 6 6 5 6 5 5 6 6 6 6 5 4
3 1 3 3 5 0 5 2 3 1 0 1 1 1 2 0 7 5 4 3 1 4 5 5 5 5 5 5 5 8 11 6 6 8 12 12 10 9 14 13 11 11 9 9 8 7 8 7 9 8 5 7 10 10 7 7 6 7 5 5 4 7 8 8 8 8 8 7 7 9 8 8 7 8 8 9 8 7 7 8 7 6 6 6 6 6 7 6 6 6 7 6 6 6 7 5 4
2 7 5 3 2 3 1 2 2 2 0 2 2 2 7 9 13 3 1 4 3 2 3 4 5 4 4 4 6 7 6 6 10 13 12 10 8 9 12 9 9 10 8 6 6 11 9 6 6 7 7 7 8 8 8 5 5 4 5 5 3 7 7 9 9 8 7 8 8 9 9 9 8 7 8 8 7 7 7 8 8 8 7 7 7 7 8 6 6 7 7 7 6 6 6 4 4
5 1 4 2 2 3 3 1 3 5 1 2 1 3 6 5 4 4 2 1 3 5 6 5 5 5 5 5 6 8 9 9 13 12 11 10 8 7 9 6 8 9 6 7 11 10 8 9 7 7 8 8 7 7 8 7 4 4 5 7 5 5 4 5 8 9 9 8 8 8 9 9 10 10 9 8 8 6 7 8 8 8 8 8 8 7 9 7 7 8 7 8 6 6 6 5 5
3 5 2 1 4 3 5 1 0 5 0 4 4 2 8 9 8 6 4 0 3 5 5 5 5 5 6 5 6 8 10 7 9 9 10 10 9 10 10 11 8 8 11 10 8 7 9 9 8 9 8 10 9 8 7 6 6 4 4 5 7 4 5 5 4 6 8 9 9 8 9 9 9 9 10 9 10 10 9 7 6 5 8 8 7 7 8 9 7 7 6 9 10 6 7 5 5
4 3 1 3 1 3 2 0 1 2 1 4 2 6 4 4 1 1 4 1 1 5 6 5 6 6 6 6 6 6 7 8 8 11 12 11 10 10 10 9 10 11 9 9 10 9 9 10 10 10 11 11 9 8 7 6 5 6 5 3 4 6 6 5 4 5 6 7 8 9 9 9 9 8 8 8 8 9 8 7 6 7 6 6 8 7 6 6 9 8 7 5 7 8 6 7 5
3 2 2 3 5 2 2 3 0 1 1 4 2 1 6 4 7 6 5 1 1 2 6 6 6 5 6 5 6 8 7 8 11 12 14 12 11 11 10 9 9 8 9 10 10 11 12 10 10 11 9 9 9 9 7 7 6 6 5 5 5 6 5 5 4 5 5 5 8 9 10 10 10 9 8 8 7 6 6 6 7 9 8 6 6 7 6 6 7 7 8 5 4 7 7 7 7
9 4 2 0 0 2 2 2 1 1 2 3 1 2 11 11 9 8 2 0 0 4 5 6 6 6 7 6 7 8 8 9 15 11 7 7 9 9 9 9 9 8 8 9 8 9 7 8 7 8 8 8 7 7 5 4 4 3 2 4 5 6 5 4 4 5 5 4 5 7 7 7 8 9 9 9 8 7 7 7 7 8 8 8 7 6 6 7 7 7 10 7 5 4 5 4 6
8 8 6 4 6 5 3 4 2 1 1 2 3 7 7 9 9 10 2 0 1 6 4 5 7 7 8 8 8 7 9 12 13 6 5 5 7 7 8 7 7 8 7 8 9 8 9 7 7 6 7 7 5 5 6 5 5 5 5 2 4 5 4 4 4 5 5 6 4 6 8 9 10 11 12 12 10 9 8 8 10 10 9 9 10 10 8 9 11 11 9 10 10 7 5 7 6
5 4 4 3 5 1 2 2 1 0 1 4 4 5 5 11 11 11 9 1 4 6 8 9 8 8 8 9 9 10 9 15 3 4 6 7 7 7 6 7 7 7 7 8 9 10 11 11 10 11 8 7 8 7 7 7 6 5 3 7 7 5 5 5 5 4 4 3 4 4 5 6 9 10 9 10 12 10 9 9 9 9 9 10 12 13 12 11 9 10 10 8 11 10 6 6 6
7 6 6 2 2 2 1 1 2 2 2 2 2 3 9 12 12 12 8 2 9 10 10 10 11 10 9 10 11 10 11 5 5 7 7 5 5 5 4 5 6 8 10 10 13 13 10 8 10 9 7 8 9 10 9 8 7 8 7 8 6 5 6 6 6 5 5 4 3 3 3 3 4 8 9 8 8 10 10 10 10 11 10 10 10 9 10 10 11 11 11 9 6 10 7 9 8
3 6 4 3 4 2 1 0 1 3 1 5 1 2 9 10 11 11 7 9 6 6 7 7 6 9 9 9 9 8 6 10 7 9 7 6 5 4 5 5 7 10 8 11 9 6 8 9 9 8 8 9 8 8 8 8 5 4 5 4 7 3 1 2 3 2 2 3 3 3 2 3 4 4 7 10 11 10 8 7 8 9 9 8 7 9 10 11 11 13 14 13 10 5 5 7 10
6 5 4 7 4 5 2 2 0 3 2 1 0 3 10 8 6 11 12 5 6 5 6 10 7 11 14 10 5 6 7 9 11 10 9 7 6 5 4 6 8 6 6 7 8 10 9 8 8 9 9 8 8 8 8 5 5 3 3 3 2 3 3 2 2 0 1 1 4 3 4 3 3 3 4 7 7 9 10 10 9 8 8 8 8 8 10 11 11 11 10 8 11 10 7 9 10
1 3 3 4 3 3 3 4 2 0 1 2 0 3 8 3 6 8 3 3 3 6 6 8 9 10 9 8 8 7 12 10 11 10 8 5 5 7 8 6 4 7 8 9 9 10 9 11 9 9 8 9 7 7 7 6 7 5 5 5 4 3 3 2 2 4 4 3 2 4 5 2 2 3 3 4 7 9 7 8 10 10 10 10 9 9 10 11 11 11 13 12 14 15 12 8 11
1 4 6 7 6 7 0 4 5 2 1 4 2 3 4 4 5 9 8 8 6 3 5 10 9 6 5 8 11 7 8 10 11 11 8 3 5 5 4 5 6 7 9 9 7 6 5 6 7 7 6 6 8 8 8 8 9 9 7 6 4 3 4 4 8 9 7 7 8 3 2 3 3 2 3 3 3 4 11 14 11 10 10 9 10 10 9 8 10 12 14 14 14 9 13 11 11
4 4 4 4 8 8 7 5 3 1 2 2 2 5 5 6 3 2 4 7 10 8 4 11 8 8 6 8 7 8 8 6 4 7 9 8 5 4 5 7 8 9 8 4 4 6 5 6 6 8 8 7 7 7 8 8 7 6 10 10 9 10 9 6 4 5 6 5 4 4 3 2 2 3 2 2 3 5 3 4 8 12 12 11 9 9 9 11 11 12 10 10 10 7 9 12 15
4 1 5 8 10 9 6 6 3 1 1 1 3 3 1 6 9 5 4 5 8 10 10 9 5 5 6 6 7 7 6 5 5 6 7 6 5 6 8 7 7 7 3 4 5 5 7 8 8 8 6 7 6 7 8 8 10 8 7 6 7 7 8 7 6 6 3 3 4 4 3 3 2 3 3 2 3 4 5 7 7 6 9 12 12 11 11 10 8 8 10 10 6 8 11 13 14
1 1 5 5 7 6 6 6 5 1 1 5 2 0 1 5 8 4 3 2 4 8 9 8 5 6 6 8 8 8 7 6 5 7 7 6 6 5 4 5 4 4 5 6 6 5 5 5 6 6 7 7 6 8 9 7 7 8 8 7 7 6 5 5 3 2 3 3 4 3 3 4 3 3 3 4 4 4 6 7 8 9 8 7 9 10 11 11 13 13 13 12 13 12 11 9 9
1 5 7 8 8 7 5 4 5 1 1 6 3 1 3 8 6 5 3 0 6 10 10 7 6 5 6 7 7 6 5 4 3 7 7 6 5 4 3 2 4 4 4 3 4 5 5 6 7 8 7 7 7 7 7 7 6 6 6 6 8 6 5 4 3 4 3 3 4 4 4 4 5 4 3 4 5 6 6 6 8 9 10 11 10 9 9 11 12 12 13 14 13 13 10 10 11
11 4 9 7 9 5 3 6 2 3 1 6 3 4 1 5 5 7 4 7 8 5 4 3 5 5 4 4 5 6 5 4 4 4 3 4 4 3 1 3 2 2 3 4 5 5 5 6 7 8 7 6 6 7 7 8 6 6 8 8 9 8 7 6 5 3 3 3 5 5 5 6 4 5 5 6 6 6 7 7 8 9 9 9 10 11 11 10 10 10 11 11 11 13 10 11 10
5 4 5 8 5 6 5 5 5 2 5 4 2 1 1 6 6 6 7 4 4 3 1 2 4 5 6 6 6 6 5 4 4 4 3 2 2 1 1 1 2 3 3 4 4 4 6 6 7 7 5 6 6 6 7 7 7 7 6 7 8 8 7 7 8 8 7 7 6 6 6 5 5 5 4 5 6 6 6 6 7 8 9 9 10 9 9 10 9 9 9 11 11 11 9 9 9
5 7 8 8 1 4 2 2 2 5 6 0 2 1 1 10 9 7 6 10 7 7 7 6 3 6 7 6 7 6 5 5 4 3 3 2 1 1 1 1 2 4 5 5 6 5 5 5 7 8 8 7 7 7 8 8 7 8 8 8 8 7 7 7 7 7 6 7 7 6 6 7 6 5 5 5 5 7 6 6 6 7 8 9 9 10 10 10 10 10 11 12 12 12 12 13 12
5 9 7 6 2 2 3 3 1 6 4 3 1 1 4 5 7 13 17 10 2 4 8 6 6 8 7 8 7 7 6 4 4 3 4 4 3 3 2 3 3 3 4 5 4 5 5 5 6 7 8 7 6 6 8 8 9 8 8 8 7 7 7 6 7 7 7 7 7 7 8 7 7 7 6 7 6 6 7 6 6 7 8 9 10 11 11 11 11 10 11 11 12 13 12 13 13
6 0 7 8 8 5 4 4 5 6 4 2 3 1 7 2 2 0 7 8 5 5 5 5 5 7 7 7 8 9 7 5 3 3 4 4 4 3 4 4 4 4 4 4 4 4 4 5 6 7 6 7 8 9 7 9 8 8 7 7 7 5 7 7 7 7 7 7 7 7 7 7 7 7 7 6 6 7 7 7 7 8 8 8 8 9 9 9 9 8 10 12 12 11 12 12 11
0 2 4 6 7 5 2 3 2 0 0 0 1 6 3 4 3 8 6 6 6 5 4 3 6 6 4 6 5 4 5 6 5 3 3 4 4 4 3 4 4 4 4 3 4 4 5 5 5 7 8 8 8 8 8 9 9 7 7 8 8 7 6 6 5 5 6 7 7 8 8 7 7 7 6 5 5 6 7 7 7 8 8 9 9 10 10 10 10 11 10 10 12 8 10 13 13
4 4 3 3 2 11 7 2 1 1 4 6 2 7 7 8 7 10 4 3 7 2 1 1 4 4 3 5 4 4 5 5 5 6 3 2 3 4 5 4 4 3 4 6 6 7 8 7 6 7 6 4 6 8 9 8 8 8 9 8 7 7 8 9 9 8 8 8 8 7 8 8 7 6 6 6 6 6 7 7 8 7 8 8 9 10 10 10 10 10 10 11 12 10 11 13 12
8 1 7 2 2 5 5 4 2 3 3 7 2 6 6 3 8 5 5 5 9 5 5 3 3 2 3 4 4 4 5 4 5 7 6 6 5 4 5 4 4 5 5 5 6 6 6 7 8 9 7 8 7 7 8 8 9 10 8 9 9 9 10 9 8 8 8 8 7 7 6 7 8 7 6 6 6 6 7 7 7 7 7 7 8 9 10 10 10 10 11 12 12 10 11 10 11
2 3 3 6 3 2 1 5 1 1 2 5 4 2 5 6 8 3 1 4 7 9 4 3 5 4 5 3 3 3 4 4 4 4 6 6 5 4 2 3 4 4 4 4 4 4 5 5 6 7 10 10 9 7 6 7 7 7 7 9 10 10 9 8 7 8 7 9 9 8 8 8 6 6 7 6 6 6 6 6 6 7 7 7 7 8 8 8 9 9 10 10 10 9 10 12 12
1 2 3 0 3 1 4 6 4 5 4 2 7 3 7 7 7 8 8 7 8 6 5 6 7 5 2 2 3 1 1 2 3 4 5 6 6 6 4 2 3 4 4 4 4 3 5 6 5 7 6 5 5 6 7 8 6 6 6 5 8 8 8 8 8 9 9 10 10 9 9 7 9 7 7 7 7 7 7 7 6 7 7 7 7 7 7 8 8 9 9 9 9 10 11 12 11
2 2 2 1 2 2 4 2 3 4 5 5 2 5 6 7 7 8 11 6 6 6 4 4 3 3 5 5 4 3 3 3 2 2 3 4 5 6 5 3 3 3 3 3 3 4 4 4 6 7 9 8 8 7 6 7 5 6 6 8 6 4 6 5 6 7 9 10 9 8 8 8 5 8 7 7 7 7 7 8 7 8 8 8 8 8 6 6 8 10 10 10 9 9 11 11 10
6 8 10 11 9 4 5 6 2 2 3 4 4 9 6 9 4 10 8 8 4 5 3 4 3 3 4 5 4 4 3 4 3 3 3 4 6 5 4 3 2 1 2 3 3 3 4 7 8 7 7 8 7 7 7 7 6 6 7 6 5 4 4 4 7 7 9 8 6 6 5 5 8 7 7 8 8 7 6 7 8 8 8 8 8 9 7 7 9 10 10 9 10 11 11 12 11
Wind_Direction
332 324 287 130 62 98 52 1 157 319 62 360 37 65 180 46 203 83 150 347 130 223 193 58 125 140 169 206 181 179 217 135 198 131 212 235 252 144 129 132 118 115 125 138 109 136 138 148 151 128 125 123 119 113 107 101 96 92 87 87 87 86 89 89 83 85 91 93 96 89 85 94 97 97 96 94 92 91 89 88 86 86 84 86 84 81 82 82 82 82 82 82 78 76 77 78 81
317 302 26 16 35 49 264 125 98 360 38 67 244 111 246 294 102 191 169 192 196 188 156 101 87 98 62 57 103 128 58 325 175 171 248 197 98 101 179 144 135 132 135 136 112 134 142 149 152 134 128 127 122 115 108 105 101 100 99 96 92 89 87 87 86 87 90 91 88 87 96 103 103 101 100 95 91 92 96 94 89 85 86 82 82 83 86 87 84 81 84 86 85 81 83 83 82
341 1 347 26 32 73 89 29 266 33 100 172 266 210 329 135 182 187 213 218 168 137 125 106 122 56 19 13 39 71 221 323 180 247 122 163 139 174 163 142 129 130 138 132 124 134 141 153 157 139 131 128 123 119 112 107 104 100 100 98 97 94 90 88 90 93 91 86 86 88 91 95 102 101 101 100 101 95 87 85 87 88 86 85 83 86 82 83 85 85 85 84 81 79 79 81 81
58 31 139 62 270 30 54 29 87 122 132 203 309 272 189 174 215 195 236 218 150 117 38 312 80 270 99 20 189 90 73 139 196 168 144 185 200 126 140 137 131 133 135 127 126 137 143 164 156 145 135 129 128 123 118 109 105 102 98 98 98 97 93 92 96 95 96 99 91 83 83 99 110 110 101 100 95 99 97 92 86 86 84 84 86 85 84 80 83 84 81 81 84 85 83 81 80
54 348 74 104 105 17 102 114 138 96 182 195 181 261 243 202 174 180 198 199 197 128 81 168 83 349 194 126 172 138 225 264 227 307 103 77 148 137 133 136 137 141 143 135 128 139 149 158 158 148 139 136 132 128 122 116 108 104 102 102 101 99 97 97 98 100 98 94 93 93 95 96 100 98 99 101 100 95 94 91 92 89 88 87 86 85 83 85 82 82 82 83 83 83 81 79 78
56 34 4 86 59 165 67 65 53 186 218 152 130 219 207 202 158 185 157 195 245 230 207 127 160 191 58 307 173 107 209 128 196 154 168 198 152 142 141 138 139 145 143 135 134 135 148 157 158 154 145 139 135 132 126 121 115 108 105 102 102 99 98 97 99 104 102 91 88 85 85 88 94 96 91 99 102 97 100 99 94 94 90 90 89 91 91 88 86 85 85 82 82 82 81 80 80
263 43 357 40 30 51 169 132 218 195 270 160 195 213 183 186 186 136 147 111 240 69 180 197 118 103 68 298 25 242 198 250 110 214 185 143 144 147 145 143 141 146 145 141 138 138 147 160 166 160 148 142 140 136 132 127 119 112 108 104 102 100 99 99 100 98 91 85 89 94 88 91 95 96 100 102 99 100 100 104 103 100 96 90 87 87 92 93 90 85 85 86 86 84 83 83 83
78 137 315 103 350 44 46 171 209 165 350 198 257 204 175 169 149 148 181 128 206 177 73 126 40 105 248 46 165 242 339 206 249 301 259 141 148 150 150 146 144 150 143 142 143 142 156 166 170 157 151 145 142 141 136 130 124 118 112 109 106 103 100 98 98 97 94 89 95 93 95 95 96 98 94 95 98 99 102 101 103 101 100 96 92 93 94 91 88 90 88 85 86 86 86 85 85
359 88 232 70 57 30 60 88 248 242 291 293 286 236 205 147 148 138 171 240 29 105 140 178 221 88 226 61 161 272 300 293 302 251 173 144 151 153 150 150 151 152 149 145 145 144 151 168 166 165 154 148 146 146 141 134 129 124 117 113 108 105 103 99 99 97 96 91 90 100 97 96 98 101 104 102 99 102 105 105 107 105 100 99 95 92 90 90 92 87 88 90 88 86 85 85 85
32 51 269 111 137 23 20 298 95 191 221 238 228 221 144 163 156 131 157 101 182 127 189 6 146 90 141 137 346 348 101 331 330 109 168 150 149 149 151 155 153 153 153 150 151 148 151 168 162 164 158 152 150 151 143 138 133 126 120 114 111 106 105 103 100 100 96 91 85 102 103 103 105 105 100 97 99 102 107 110 109 109 108 106 103 99 96 92 93 96 92 91 90 87 87 85 86
339 18 137 75 30 78 177 249 263 313 290 317 290 244 173 131 128 133 75 152 42 141 246 240 38 131 97 252 215 249 304 304 130 170 178 150 150 153 150 150 152 158 157 153 149 148 154 157 159 160 163 156 155 149 143 142 136 129 124 119 115 113 108 106 100 100 99 96 93 93 110 103 103 107 105 100 102 105 109 116 115 113 112 108 104 99 97 100 99 95 94 93 92 90 87 89 88
25 28 20 101 160 156 231 169 275 283 303 348 192 299 193 133 111 122 136 122 220 129 163 151 215 148 65 340 293 305 324 341 190 178 173 147 152 154 145 140 150 157 158 151 146 151 150 147 155 164 162 155 151 144 143 144 137 131 128 127 123 118 113 109 108 103 105 102 97 97 99 92 93 105 105 104 101 108 112 119 117 117 115 112 106 104 104 101 99 99 99 98 96 94 94 94 91
108 108 84 86 195 135 191 116 243 320 345 277 173 198 131 112 186 186 170 103 100 131 299 208 145 89 141 178 258 319 335 234 198 181 160 154 155 138 134 138 146 144 151 147 148 148 145 146 147 151 156 150 146 140 143 140 136 134 133 133 131 123 118 115 114 111 108 108 97 78 85 100 98 94 107 107 105 106 124 123 120 122 115 112 108 107 106 105 103 101 102 104 102 101 99 92 89
114 175 127 137 52 117 134 194 351 143 263 246 269 155 183 138 244 171 132 125 195 168 246 186 141 134 107 4 304 299 240 219 181 182 119 150 134 133 138 135 139 148 152 150 156 143 145 147 142 143 141 146 142 137 141 138 138 136 134 130 127 124 122 118 115 112 95 71 64 73 86 87 95 97 91 96 102 112 118 113 119 119 116 113 113 110 109 108 104 103 103 103 102 101 99 94 90
113 144 83 113 59 95 235 128 202 155 238 189 183 141 183 283 105 137 162 145 238 213 326 110 172 119 229 146 272 208 198 188 157 135 134 137 138 138 134 138 137 143 152 159 148 147 152 142 141 138 142 139 137 134 137 138 138 135 131 129 126 121 114 109 99 86 85 82 79 83 83 83 81 79 77 78 87 91 91 105 112 116 120 117 114 112 111 108 104 102 101 100 101 100 95 91 87
138 92 80 101 158 135 236 118 27 99 256 178 121 159 143 341 175 131 245 148 159 339 154 186 33 194 170 156 215 241 204 140 141 134 131 134 141 139 142 139 137 138 153 162 155 156 147 147 143 145 144 142 140 138 138 135 138 137 135 131 126 119 112 105 99 91 90 90 88 88 87 84 79 79 77 70 69 63 78 96 112 118 117 118 117 115 112 107 103 104 102 101 97 91 84 76 75
92 82 65 44 178 164 231 147 144 202 240 236 281 144 160 218 236 258 95 75 122 190 2 292 128 333 190 207 215 263 219 124 129 135 132 131 147 147 136 146 137 155 161 167 164 162 152 154 148 152 153 148 141 141 144 139 143 137 133 130 124 120 113 106 100 98 93 93 94 91 88 86 84 80 77 76 61 52 81 99 114 112 118 119 115 116 113 108 108 104 101 98 92 85 79 71 66
57 77 113 93 201 153 204 176 187 215 138 207 177 191 140 198 182 198 94 36 67 2 142 313 301 290 291 279 261 233 162 134 147 151 156 150 164 159 177 160 157 173 161 170 170 170 159 164 163 155 150 151 149 149 148 147 144 137 129 121 116 114 112 110 103 104 101 99 96 93 93 94 95 90 87 78 56 59 85 85 71 84 111 117 119 114 109 106 108 111 108 98 90 86 81 77 67
91 142 94 224 177 236 163 196 191 121 240 163 174 167 157 211 146 217 129 282 58 124 282 3 293 264 327 350 130 133 148 135 161 167 158 169 171 177 179 172 176 164 173 166 158 168 171 168 167 163 153 157 153 153 153 146 148 140 131 123 112 107 110 106 109 104 106 103 99 100 100 102 103 99 90 79 74 72 79 80 69 67 93 106 106 110 107 104 113 107 95 89 80 75 73 73 69
201 114 161 249 207 219 216 174 196 211 141 141 150 191 132 231 147 151 200 167 67 188 201 325 252 229 244 84 132 144 154 151 166 176 180 181 184 179 167 180 180 187 181 180 169 171 173 181 175 167 166 164 155 156 155 151 153 146 141 134 123 119 109 108 107 109 108 109 108 106 106 110 105 102 91 81 75 71 73 73 69 63 61 69 86 96 101 113 102 90 85 80 71 63 73 69 74
218 84 164 229 196 118 226 192 235 209 180 142 131 93 131 241 208 158 163 114 260 266 233 181 201 210 174 174 158 161 159 162 176 185 191 194 195 194 199 200 196 191 177 158 169 176 177 179 176 174 166 173 162 169 162 160 154 148 147 140 139 135 124 115 114 112 111 114 113 113 112 111 110 101 93 87 86 85 79 75 70 70 72 73 73 73 70 73 76 87 77 70 68 73 74 66 70
99 180 193 169 152 51 287 210 231 166 206 115 122 136 208 95 68 117 151 169 218 210 227 216 204 163 155 168 178 167 172 171 182 190 197 195 197 198 197 202 196 183 157 177 182 177 181 179 181 179 172 175 178 181 176 158 159 163 152 147 143 142 138 133 133 128 122 119 122 119 116 112 113 108 102 99 96 96 92 91 87 92 88 80 82 92 83 85 85 83 84 84 76 69 70 71 65
167 323 353 178 196 106 317 304 228 149 119 140 146 196 105 151 168 221 177 198 231 227 246 213 187 176 158 151 152 167 176 185 190 196 195 197 200 203 200 196 192 190 177 189 178 179 179 180 180 181 185 179 183 186 177 168 174 169 154 155 146 155 144 142 146 142 139 135 131 135 129 128 123 122 117 116 112 109 106 107 103 101 103 100 99 113 102 88 92 91 88 86 86 85 76 69 68
102 176 96 57 175 39 303 261 152 213 145 182 175 110 136 153 173 137 210 241 213 51 279 232 145 130 150 153 178 175 183 186 197 199 197 200 198 201 196 195 198 181 177 190 179 177 178 187 179 181 185 183 183 185 184 178 175 169 162 153 157 156 152 155 153 154 142 143 141 142 129 134 139 135 133 130 130 118 121 116 115 106 112 113 113 121 117 102 94 91 99 94 89 82 89 77 73
97 119 185 117 105 303 344 91 94 128 77 86 119 128 289 187 179 96 246 241 249 308 73 103 124 135 155 171 177 186 192 200 205 206 214 221 213 205 206 208 197 190 205 200 185 177 182 183 181 183 186 181 183 182 195 183 183 171 160 163 164 155 164 158 157 152 153 143 148 146 143 137 136 136 142 141 133 128 124 126 124 125 121 127 127 116 119 118 104 103 100 99 95 93 87 87 86
148 135 117 67 57 329 341 71 55 88 110 98 102 33 338 235 228 252 239 254 271 127 75 113 123 144 171 187 189 184 191 199 198 200 209 204 213 213 213 207 200 205 210 207 202 195 177 178 187 187 186 181 174 188 193 193 202 180 168 167 163 160 168 160 154 164 159 151 156 158 159 156 158 156 147 147 142 141 135 128 128 134 130 135 131 123 120 116 119 109 102 100 98 92 86 77 89
139 100 95 96 318 288 357 123 11 341 103 315 138 186 80 326 79 276 323 282 156 85 103 122 147 178 191 193 198 203 196 200 198 192 183 206 213 212 220 219 215 211 202 211 206 205 188 183 195 193 185 184 174 200 199 191 181 199 177 166 156 172 163 159 162 165 163 163 165 166 164 169 158 158 156 156 151 144 142 138 142 136 133 138 134 120 112 116 113 114 119 120 113 104 91 87 76
89 136 100 30 349 80 13 77 19 339 46 50 129 141 296 309 77 233 228 344 264 147 140 157 179 195 200 208 208 210 218 220 185 168 202 197 207 206 209 212 215 212 210 210 202 187 192 197 195 202 198 183 186 198 198 203 193 190 194 185 177 176 166 168 167 167 173 172 172 176 171 172 172 168 165 164 162 159 155 153 152 150 152 144 136 131 119 113 115 107 96 95 101 102 98 81 64
145 115 98 321 11 36 8 87 320 10 83 29 252 85 303 30 229 248 271 313 122 150 163 183 202 214 213 214 217 217 221 211 212 219 219 214 210 205 215 214 210 211 221 217 211 204 202 197 194 189 195 191 188 193 199 200 200 181 168 182 169 173 170 163 169 177 174 179 179 179 181 174 177 175 176 175 172 172 163 160 162 166 161 152 143 135 125 124 118 113 100 101 94 91 90 72 67
103 41 115 45 24 345 299 321 337 82 279 14 332 235 260 245 244 265 19 17 92 129 201 214 227 233 236 223 218 230 230 218 219 222 223 220 213 210 221 215 210 214 209 205 203 217 211 206 201 194 191 193 197 196 188 200 195 198 170 162 169 180 177 173 174 179 183 176 179 186 184 179 181 186 179 178 173 169 171 171 169 168 165 156 148 144 138 141 131 122 123 113 105 108 102 92 97
134 200 58 124 104 260 307 11 311 125 288 28 110 197 287 275 278 290 314 296 153 206 225 220 225 243 241 231 230 232 235 220 224 227 231 230 227 224 228 216 211 210 202 206 210 209 198 207 194 206 195 203 193 199 195 188 196 194 197 162 165 186 196 203 184 174 177 184 183 190 188 185 184 182 184 177 178 174 179 173 176 174 162 159 156 160 146 143 140 140 143 126 122 112 108 102 88
24 83 272 333 159 278 297 2 4 169 15 42 103 300 246 259 260 298 323 31 158 215 240 241 236 238 243 241 237 241 241 235 245 243 234 229 221 224 220 221 207 203 207 207 208 195 204 201 194 201 192 202 201 198 196 187 188 199 225 184 156 181 190 188 178 185 188 182 181 187 195 191 193 188 182 181 177 179 183 191 179 160 165 158 156 159 153 148 148 142 150 145 134 127 120 106 105
358 112 228 188 120 243 342 263 34 1 125 9 155 220 322 324 266 271 332 70 144 216 254 254 251 252 251 248 244 245 262 255 247 240 235 225 224 221 220 218 210 210 204 198 199 196 204 199 195 198 196 198 197 204 200 191 187 206 204 208 178 174 189 195 186 176 199 195 189 188 190 192 194 190 190 189 188 183 179 172 158 155 165 168 157 158 161 151 149 149 151 158 144 137 133 126 113
243 26 149 212 160 219 246 304 309 39 93 208 15 228 234 245 278 291 324 62 111 224 252 265 266 259 254 258 255 252 249 256 250 237 235 220 224 217 219 215 212 207 206 203 199 196 202 195 196 199 196 192 191 192 193 185 190 194 200 200 199 208 203 193 194 189 202 211 195 191 189 190 188 185 182 184 186 181 179 167 157 160 163 165 163 159 158 153 146 145 138 136 130 139 142 135 127
191 189 120 198 351 198 204 154 228 30 21 183 333 263 273 273 287 290 275 196 141 233 243 263 273 269 266 255 253 249 249 249 251 241 235 226 228 223 215 212 206 204 205 202 197 200 195 196 196 199 191 183 184 181 176 166 157 164 148 185 206 210 213 213 207 209 198 196 196 185 177 184 189 186 180 178 183 174 167 167 161 166 166 161 151 159 156 160 148 144 144 132 111 113 121 118 121
182 171 176 145 149 211 204 241 275 166 173 235 218 226 267 288 291 289 320 279 232 269 292 277 265 262 262 254 252 251 244 251 251 262 248 232 222 217 215 205 204 202 201 195 196 192 196 193 194 195 193 176 160 152 149 154 156 176 186 185 224 221 211 209 228 227 210 206 206 190 188 187 191 193 187 182 184 184 179 178 172 167 169 161 159 165 174 176 162 150 153 145 135 121 122 131 130
116 77 96 178 162 276 275 273 274 107 103 244 246 272 277 277 272 274 279 255 292 282 277 268 261 259 253 250 243 243 243 243 272 240 243 235 232 221 211 194 198 194 196 192 193 197 194 192 180 196 185 167 162 163 169 166 171 173 198 205 209 188 197 201 214 215 224 234 214 203 200 204 193 194 196 188 186 185 186 177 172 175 177 179 178 182 177 169 165 157 142 144 145 138 138 148 150
142 145 153 206 197 158 205 135 354 329 148 287 29 319 271 264 276 274 280 322 270 253 255 258 258 250 251 246 253 243 245 291 280 278 265 262 247 238 213 197 182 185 206 190 198 200 193 181 187 187 168 177 180 178 176 179 185 188 178 194 184 181 185 196 212 207 212 203 217 236 237 217 199 193 189 195 202 190 183 178 180 181 181 191 187 169 167 166 161 156 151 144 169 154 146 166 167
65 147 173 132 251 230 316 360 356 339 104 264 21 320 272 268 266 274 262 250 242 228 219 238 240 258 253 248 249 266 281 268 278 259 264 259 257 243 210 205 205 208 193 196 199 176 181 185 191 179 180 180 186 179 169 186 181 173 174 175 178 182 240 195 199 193 179 201 211 220 227 244 225 218 213 202 188 179 175 167 182 178 182 184 183 177 166 168 175 169 168 160 152 151 117 163 181
118 93 116 202 220 131 233 266 29 6 93 309 187 311 280 281 273 262 266 249 261 265 259 260 234 250 251 248 242 250 256 258 261 259 257 250 245 238 212 209 209 200 192 194 188 190 187 190 186 180 181 182 179 184 182 168 145 121 73 112 105 120 178 165 159 50 263 245 239 207 229 216 234 231 206 199 194 180 171 175 171 176 183 173 174 176 181 178 173 170 170 170 156 141 164 182 198
321 165 143 141 162 225 149 197 124 337 43 63 96 301 296 317 289 291 311 337 320 287 314 279 258 241 265 288 275 236 252 254 262 267 256 240 246 237 215 212 184 195 202 197 192 194 190 191 185 178 173 179 177 172 169 146 124 100 91 69 74 75 53 83 145 244 230 235 261 227 230 195 213 241 225 207 197 180 179 178 177 179 178 179 175 183 191 190 179 176 172 167 179 169 168 170 193
178 231 174 191 173 133 23 111 113 26 329 4 49 316 305 303 278 244 288 342 330 293 332 285 276 283 279 271 264 265 250 243 243 256 264 228 223 245 239 207 194 206 208 207 196 191 172 171 165 167 161 168 175 175 166 159 167 161 155 151 159 177 204 180 207 212 210 216 220 204 186 188 214 225 238 211 228 254 184 176 180 178 181 180 185 187 188 174 180 181 188 187 188 187 167 160 179
122 232 154 154 145 128 130 134 84 109 156 344 23 182 265 326 315 276 331 329 298 302 268 270 284 286 280 258 261 259 258 277 287 272 270 267 236 212 227 209 205 206 215 167 169 174 167 163 168 168 171 172 169 170 168 167 167 176 184 189 192 196 206 220 214 211 211 218 204 210 216 173 189 215 246 240 209 186 197 200 189 180 177 182 182 182 187 190 189 192 184 194 197 172 154 170 183
200 286 127 122 120 132 159 115 115 165 246 278 48 107 182 306 281 280 310 312 296 307 289 276 285 282 270 270 271 271 281 289 272 272 274 267 256 210 214 215 207 215 173 162 172 168 171 169 165 169 166 169 174 167 174 182 177 181 186 198 201 207 210 213 195 211 210 185 199 213 214 224 195 205 230 240 218 199 188 183 185 201 194 183 177 189 191 191 190 194 191 196 190 195 187 182 186
218 235 138 122 128 133 114 92 99 112 82 271 337 324 315 251 267 311 2 341 311 292 279 273 309 289 282 284 281 280 277 263 247 258 262 264 254 240 224 211 214 181 176 184 180 169 153 148 153 154 168 170 174 175 177 189 186 181 186 189 208 222 214 219 182 177 181 181 209 223 223 232 229 207 219 227 221 222 198 190 187 188 192 201 197 192 189 188 192 190 190 191 193 196 199 197 174
268 132 98 98 86 71 88 100 85 360 78 268 227 283 210 277 272 319 338 277 278 256 260 292 276 280 297 302 299 289 283 282 256 245 266 284 279 273 237 204 177 190 172 148 136 137 146 148 159 167 180 179 175 177 181 185 182 170 183 196 209 216 209 216 170 191 187 172 207 217 226 232 235 246 233 224 230 220 205 196 193 195 195 188 189 205 198 191 193 195 197 199 198 197 195 194 198
135 128 81 48 41 33 32 63 87 61 327 252 252 314 159 297 265 222 158 212 203 245 309 285 293 305 293 274 279 291 302 311 312 307 277 273 282 274 295 172 177 130 141 143 142 152 154 162 167 178 187 171 171 180 179 186 185 184 194 197 206 209 206 201 202 210 187 189 211 219 213 219 211 218 218 237 232 222 213 197 198 199 196 192 190 190 196 196 195 193 196 202 206 204 201 197 199
123 100 131 83 4 11 30 346 33 118 268 265 280 261 96 193 291 278 247 272 217 174 196 267 295 301 300 318 315 299 290 293 309 318 318 335 351 25 31 161 147 149 128 143 151 153 164 171 169 177 175 181 179 179 180 188 187 197 203 200 206 209 200 199 206 212 198 209 208 215 214 208 213 211 207 225 228 228 222 211 201 197 195 191 198 199 199 194 193 193 195 200 207 209 203 198 204
83 90 88 111 223 37 276 9 251 214 208 246 340 201 352 244 227 260 288 267 246 217 217 219 230 281 298 307 305 297 292 300 299 304 317 323 307 289 279 227 159 159 181 173 173 172 170 169 175 177 192 186 186 179 186 190 192 201 201 204 210 203 204 203 207 212 196 207 204 213 205 215 208 207 207 217 223 219 222 216 203 201 199 199 197 194 200 197 195 195 197 201 204 202 202 201 204
115 134 138 106 114 84 221 272 276 311 291 276 304 226 263 260 276 239 244 253 143 204 223 230 238 250 272 285 297 304 296 281 277 282 288 281 259 255 240 235 213 208 192 186 175 173 175 177 183 188 199 184 181 181 189 193 204 205 203 207 207 198 208 201 210 209 206 205 200 212 209 209 210 210 205 207 206 219 217 216 209 209 205 200 198 200 199 198 195 195 197 201 204 208 206 209 214
204 29 144 172 143 153 205 191 195 214 202 285 277 83 232 116 244 224 235 270 280 260 235 225 241 252 261 282 283 278 290 297 260 265 257 248 256 226 225 219 221 217 204 190 180 182 171 189 185 198 201 192 186 192 191 201 206 206 207 210 207 199 205 206 212 207 203 204 207 213 214 210 210 215 210 205 194 210 220 216 210 209 206 203 198 200 200 199 198 199 203 208 211 208 208 207 214
314 165 75 102 212 131 143 206 144 143 180 338 215 215 193 181 273 279 253 287 290 261 253 210 250 258 275 283 276 296 304 292 296 268 224 254 252 256 243 234 224 215 208 191 191 184 183 199 201 213 212 198 193 191 200 201 206 204 206 206 207 203 208 210 215 208 213 207 210 208 214 208 212 211 207 196 206 204 217 222 219 216 208 205 200 200 198 199 198 200 207 208 214 202 204 207 214
222 99 188 202 115 99 101 65 10 100 44 261 165 313 288 298 317 281 325 319 279 307 280 197 243 267 323 275 285 302 285 281 303 311 294 204 224 237 223 228 223 208 206 202 201 194 192 190 196 217 228 223 207 207 204 202 204 204 211 207 204 206 207 209 211 211 211 211 211 212 210 212 209 205 211 197 206 211 215 218 221 221 220 212 206 202 200 200 198 202 207 208 213 204 206 213 213
98 168 222 177 148 125 128 202 351 66 187 264 78 233 297 20 282 326 339 308 288 302 274 270 282 286 280 270 301 272 270 284 288 283 272 272 254 228 221 221 217 205 206 209 212 204 200 195 195 204 212 215 217 212 214 207 205 209 207 207 208 209 210 213 210 213 209 212 217 214 212 212 209 205 201 203 203 213 217 215 221 224 221 220 216 209 205 201 198 204 209 212 214 203 208 216 215
143 197 191 115 209 229 310 92 225 163 264 271 302 288 260 194 246 340 303 212 252 259 270 315 286 267 255 309 281 266 283 306 302 294 307 304 295 286 232 224 224 222 218 218 220 204 205 210 209 211 215 210 206 205 216 225 219 217 211 208 207 212 214 212 212 214 210 215 217 212 212 214 207 201 204 200 199 208 213 217 216 225 222 223 221 217 209 208 204 210 211 214 212 202 209 216 218
41 83 75 317 98 156 120 199 169 124 243 61 288 39 247 200 222 193 237 219 226 254 296 262 239 237 189 198 238 252 293 294 270 273 279 278 288 292 293 261 233 219 219 230 226 216 216 215 212 225 239 228 208 204 207 224 223 226 230 223 224 217 213 211 210 210 214 219 217 211 211 211 210 204 203 200 201 203 204 213 215 220 223 223 221 220 209 208 205 214 212 212 212 201 211 218 220
75 88 186 94 28 224 104 28 118 183 173 182 214 312 275 257 214 190 219 210 214 195 217 248 265 210 203 211 232 265 272 258 258 265 276 288 294 302 306 291 251 225 201 195 207 226 235 220 226 223 221 222 219 210 200 219 208 227 232 234 237 234 233 228 233 227 229 230 222 212 211 209 203 213 200 205 205 206 206 207 211 215 218 220 220 221 212 207 208 216 217 213 207 201 210 219 214
174 163 188 175 127 138 161 248 31 99 115 215 133 253 266 271 183 204 209 224 210 223 208 270 265 240 226 238 247 229 249 256 244 241 249 289 305 310 302 303 267 217 193 189 200 224 241 229 224 220 224 229 222 214 205 207 206 209 220 233 241 235 228 230 235 236 238 242 243 232 217 206 215 217 199 208 207 206 204 207 213 216 215 219 221 222 213 207 215 219 221 213 211 206 211 218 211